Location: Amherst
(42.5000°N, 72.5000°W)
Time: 00:58:09
(UTC-04:00)

ISS - Pass Details

Date: 23 May 2018
Orbit: 402 x 407 km, 51.6° (Epoch: 21 May)

Event Time Altitude Azimuth Distance (km) Brightness Sun altitude
Rises 04:01:45 0° 296° (WNW) 2,317 -0.2 -12.6°
Reaches altitude 10° 04:04:01 10° 283° (WNW) 1,454 -1.3 -12.3°
Maximum altitude 04:06:50 27° 224° (SW) 811 -2.9 -11.9°
Drops below altitude 10° 04:09:37 10° 164° (SSE) 1,446 -1.3 -11.5°
Sets 04:11:52 0° 152° (SSE) 2,301 -0.1 -11.2°
